Tracking 31027 objects as of 19-Jul-2025
HD Live streaming from Space Station
objects crossing your sky now

CZ-3C DEB

Track CZ-3C DEB now!


NORAD ID: 40203
Int'l Code: 2012-008N
Perigee: 467.5 km
Apogee: 34,622.1 km
Inclination: 21.2 °
Period: 613.5 minutes
Semi major axis: 23915 km
RCS: Unknown
Launch date: February 24, 2012
Source: People's Republic of China (PRC)
Launch site: Xichang Space Center, China (XSC)

Note: This is SATELLITE DEBRIS
Your satellite tracking list
FENGYUN 1C DEB
Track 1 satellite(s)




NASA's NSSDC Master Catalog

Two Line Element Set (TLE):
1 40203U 12008N   25186.46034969 -.00000080  00000-0  58851-3 0  9992
2 40203  21.1899 330.1649 7140576 288.4620  10.6784  2.34733462 99241
Source of the keplerian elements: AFSPC